Home   Weather   Hinckley   Past weeks

Flag for United Kingdom Past Weather in Hinckley, England, United Kingdom — Yesterday and Last 2 Weeks

Now
54 °F

Cool.


Feels Like: 53 °F
Forecast: 47 / 55 °F
Wind: 5 mph from Southeast

Location: Church Lawford

Current Time: Apr 30, 2017 at 10:02:46 pm

Latest Report: Apr 30, 2017 at 9:00 pm


Visibility: 25 mi

Pressure: 29.47 "Hg

Humidity: 61%

Dew Point: 41 °F

Location of HinckleyLocation

Past Weather in Hinckley — Graph

°F

Hinckley Temperature Yesterday

Maximum temperature yesterday: 54 °F (at 5:00 pm)
Minimum temperature yesterday: 39 °F (at 5:00 am)
Average temperature yesterday: 48 °F

High & Low Weather Summary for the Past Weeks

 TemperatureHumidityPressure
High61 °F (Apr 30, 2:00 pm)99% (Apr 28, 7:00 am)30.64 "Hg (Apr 28, 7:00 am)
Low32 °F (Apr 27, 6:00 am)29% (Apr 19, 4:00 pm)29.47 "Hg (Apr 30, 2:00 pm)
Average47 °F74%30.19 "Hg
* Reported Apr 15 8:00 pm — Apr 30 8:00 pm, Hinckley, Weather by CustomWeather, © 2017

Note: Actual official high and low records may vary slightly from our data, if they occured in-between our weather recording intervals... More about our weather records

Advertising

Hinckley Weather History for the Previous 24 Hours

Scroll right to see more
 ConditionsComfort  
Time TempWeatherWind HumidityBarometerVisibility
8:00 pm
Sun, Apr 30
54 °FCool.3 mph60%29.47 "Hg25 mi
7:00 pm56 °FRefreshingly cool.6 mph53%29.47 "Hg28 mi
6:00 pm56 °FRefreshingly cool.10 mph59%29.47 "Hg17 mi
5:00 pm56 °FRefreshingly cool.13 mph59%29.47 "Hg15 mi
4:00 pm57 °FRefreshingly cool.16 mph55%29.47 "Hg12 mi
3:00 pm59 °FRefreshingly cool.17 mph50%29.47 "Hg19 mi
2:00 pm61 °FRefreshingly cool.16 mph46%29.47 "Hg18 mi
1:00 pm60 °FRefreshingly cool.18 mph46%29.50 "Hg22 mi
12:00 pm58 °FRefreshingly cool.21 mph50%29.55 "Hg22 mi
10:00 am53 °FCool.14 mph66%29.61 "Hg9 mi
9:00 am50 °FCool.14 mph70%29.64 "Hg8 mi
8:00 am48 °FCool.14 mph74%29.66 "Hg8 mi
7:00 am46 °FCool.13 mph75%29.68 "Hg10 mi
6:00 am46 °FCool.15 mph73%29.70 "Hg9 mi
5:00 am48 °FCool.18 mph69%29.71 "Hg12 mi
4:00 am49 °FCool.17 mph69%29.73 "Hg11 mi
3:00 am49 °FCool.16 mph71%29.75 "Hg7 mi
2:00 am48 °FCool.15 mph75%29.77 "Hg7 mi
1:00 am49 °FCool.13 mph75%29.80 "Hg7 mi
12:00 am49 °FCool.13 mph71%29.81 "Hg13 mi
11:00 pm
Sat, Apr 29
48 °FCool.8 mph70%29.83 "Hg25 mi
10:00 pm48 °FCool.7 mph73%29.84 "Hg19 mi
Weather by CustomWeather, © 2017

See weather overviewHow to use our weather pages